FW7380 Weather Reports


time (UTC)temp
F
wind
direction
speed
knots
gust
knots
rain 1hr
in
rain 24hr
in
rain mn
in
humidity
%
barometer
mb
20240521031527 54 178 0.0 4.3 0.00 0.00 0.00 94 1016.3
20240521030028 54 6 1.7 5.2 0.00 0.00 0.00 94 1016.3
20240521024530 55 150 0.0 2.6 0.00 0.00 0.00 94 1016.4
20240521023027 55 0 0.0 3.5 0.00 0.00 0.00 93 1016.3
20240521021535 56 354 0.0 1.7 0.00 0.00 0.00 93 1016.3
20240521020027 57 15 0.0 3.5 0.00 0.00 0.00 92 1016.0
20240521014536 57 257 0.0 0.9 0.00 0.00 0.00 91 1016.1
20240521013026 58 0 0.0 3.5 0.00 0.00 0.00 91 1016.2
20240521011538 58 0 0.0 0.9 0.00 0.00 0.00 90 1016.1
20240521010030 59 12 0.9 2.6 0.00 0.00 0.00 89 1015.8
20240521004540 59 0 0.0 0.9 0.00 0.00 0.00 88 1015.7
20240521003026 60 35 0.0 1.7 0.00 0.00 0.00 87 1015.5
20240521001547 61 0 0.0 1.7 0.00 0.00 0.00 85 1015.6
20240521000031 62 0 0.0 1.7 0.00 0.00 0.00 83 1015.6
20240520234534 63 347 0.0 2.6 0.00 0.00 0.00 82 1015.8
20240520233025 64 23 0.0 2.6 0.00 0.00 0.00 80 1015.7
20240520231532 65 205 0.0 5.2 0.00 0.00 0.00 78 1015.7
20240520230030 67 64 0.9 4.3 0.00 0.00 0.00 75 1015.7
20240520224529 68 0 0.0 2.6 0.00 0.00 0.00 74 1015.6
20240520223036 69 136 0.9 3.5 0.00 0.00 0.00 73 1015.8
20240520221530 70 119 0.9 5.2 0.00 0.00 0.00 72 1015.9
20240520220049 70 27 1.7 4.3 0.00 0.00 0.00 72 1016.0
20240520214527 70 104 1.7 5.2 0.00 0.00 0.00 70 1015.8
20240520213029 71 0 0.9 4.3 0.00 0.00 0.00 68 1015.9
20240520211531 70 274 0.9 2.6 0.00 0.00 0.00 70 1016.2
20240520210052 70 30 1.7 4.3 0.00 0.00 0.00 68 1016.3
20240520204544 71 207 0.9 4.3 0.00 0.00 0.00 68 1016.2
20240520203038 71 154 1.7 5.2 0.00 0.00 0.00 68 1016.3
20240520201536 72 356 0.9 2.6 0.00 0.00 0.00 66 1016.5
20240520200037 72 251 0.0 3.5 0.00 0.00 0.00 67 1016.5
20240520194543 72 160 0.9 2.6 0.00 0.00 0.00 68 1016.5
20240520193029 72 356 1.7 4.3 0.00 0.00 0.00 68 1016.7
20240520191532 71 319 0.0 2.6 0.00 0.00 0.00 71 1016.8
20240520190046 71 0 0.0 7.0 0.00 0.00 0.00 70 1016.8
20240520184531 70 0 0.9 4.3 0.00 0.00 0.00 71 1017.0
20240520183026 70 37 0.9 3.5 0.00 0.00 0.00 68 1017.1
20240520181538 71 167 0.9 3.5 0.00 0.00 0.00 70 1017.2
20240520180030 71 234 0.0 3.5 0.00 0.00 0.00 72 1017.2
20240520174533 69 130 0.9 3.5 0.00 0.00 0.00 70 1017.3
20240520173033 69 288 0.0 2.6 0.00 0.00 0.00 73 1017.3
20240520171529 68 222 0.0 2.6 0.00 0.00 0.00 74 1017.5
20240520170026 67 70 1.7 4.3 0.00 0.00 0.00 75 1017.5
20240520164535 66 63 0.9 2.6 0.00 0.00 0.00 77 1017.8
20240520163027 65 0 0.0 0.9 0.00 0.00 0.00 78 1018.0
20240520161536 65 0 0.0 0.9 0.00 0.00 0.00 79 1018.2
20240520160036 63 0 0.0 1.7 0.00 0.00 0.00 79 1018.1
20240520154529 63 238 0.0 1.7 0.00 0.00 0.00 81 1018.2
20240520153026 62 0 0.0 0.9 0.00 0.00 0.00 84 1018.2
20240520151533 61 345 0.0 1.7 0.00 0.00 0.00 84 1018.3
20240520150037 60 0 0.0 3.5 0.00 0.00 0.00 86 1018.2
20240520144535 59 0 0.0 1.7 0.00 0.00 0.00 87 1018.1
20240520143028 58 0 0.0 1.7 0.00 0.00 0.00 89 1017.8
20240520141539 58 210 0.0 1.7 0.00 0.00 0.00 88 1017.9
20240520140028 57 199 0.0 1.7 0.00 0.00 0.00 89 1018.1
20240520134531 57 0 0.0 0.0 0.00 0.00 0.00 90 1018.1
20240520133028 57 247 0.0 0.9 0.00 0.00 0.00 92 1018.2
20240520131532 56 248 0.0 0.9 0.00 0.00 0.00 92 1018.5
20240520130035 56 0 0.0 0.0 0.00 0.00 0.00 93 1018.6
20240520124529 55 0 0.0 0.9 0.00 0.00 0.00 94 1018.3
20240520123027 55 0 0.0 0.0 0.00 0.00 0.00 94 1018.5
20240520121527 54 0 0.0 0.9 0.00 0.00 0.00 95 1018.6
20240520120047 54 0 0.0 0.0 0.00 0.00 0.00 96 1018.6
20240520114527 53 0 0.0 0.0 0.00 0.00 0.00 96 1018.5
20240520113028 53 0 0.0 0.0 0.00 0.00 0.00 97 1018.3
20240520111532 53 0 0.0 0.0 0.00 0.00 0.00 97 1017.9
20240520110036 53 234 0.0 0.9 0.00 0.00 0.00 97 1017.8
20240520104530 53 0 0.0 0.9 0.00 0.00 0.00 98 1018.0
20240520103040 52 0 0.0 0.9 0.00 0.00 0.00 98 1018.0
20240520101534 52 0 0.0 0.9 0.00 0.00 0.00 98 1017.8
20240520100029 52 0 0.0 0.0 0.00 0.00 0.00 98 1017.7
20240520094529 52 0 0.0 0.0 0.00 0.00 0.00 98 1017.8
20240520093026 52 0 0.0 0.0 0.00 0.00 0.00 98 1017.8
20240520091533 52 0 0.0 0.9 0.00 0.00 0.00 98 1017.9
20240520090047 52 0 0.0 0.0 0.00 0.00 0.00 98 1017.9
20240520084525 52 0 0.0 0.0 0.00 0.00 0.00 98 1017.7
20240520083026 52 0 0.0 0.0 0.00 0.00 0.00 98 1017.7
20240520081530 52 0 0.0 0.0 0.00 0.00 0.00 98 1017.7
20240520080035 52 0 0.0 0.0 0.00 0.00 0.00 98 1017.7
20240520074526 52 0 0.0 0.9 0.00 0.00 0.00 97 1017.8
20240520073025 52 0 0.0 0.0 0.00 0.00 0.00 97 1017.6
20240520071529 52 0 0.0 0.0 0.00 0.00 0.00 97 1017.7
20240520070041 52 0 0.0 0.0 0.00 0.00 0.00 97 1017.5
20240520064526 52 0 0.0 0.0 0.00 0.00 0.00 97 1017.5
20240520063029 52 0 0.0 0.0 0.00 0.00 0.00 97 1017.7
20240520061527 52 0 0.0 0.0 0.00 0.00 0.00 97 1017.9
20240520060032 52 0 0.0 0.9 0.00 0.00 0.00 97 1017.9
20240520054535 52 0 0.0 0.9 0.00 0.00 0.00 97 1018.0
20240520053030 52 0 0.0 0.9 0.00 0.00 0.00 97 1017.9
20240520051550 52 0 0.0 0.0 0.00 0.00 0.00 97 1018.0
20240520050104 52 0 0.0 0.0 0.00 0.00 0.00 97 1018.0
20240520044528 52 0 0.0 0.0 0.00 0.00 0.00 97 1018.3
20240520043039 52 0 0.0 0.0 0.00 0.00 0.00 96 1018.3
20240520041528 52 0 0.0 0.0 0.00 0.00 0.00 96 1018.2
20240520040031 52 0 0.0 0.0 0.00 0.00 0.00 96 1018.2
20240520034530 52 0 0.0 0.0 0.00 0.00 0.00 95 1018.2
20240520033040 53 0 0.0 0.9 0.00 0.00 0.00 95 1018.2